Wind_Speed
58 57 56 55 53 52 50 49 50 51 53 56 58 62 64 67 69 72 74 77 80 83 86 89 92 95 98 101 103 105 107 110 112 114 117 120 122 124 127 129 132 134 136 137 138 139 140 141 142 143 143 143 143 143 143 142 142 142 143 143 143 143 142 142 143 143 144 144 145 145 145 144 144 143 143 144 145 146 146 146 146 146 146 145 144
57 56 55 55 54 53 52 50 48 48 50 52 54 56 60 62 65 68 70 72 75 78 81 84 87 90 93 96 99 100 102 105 107 109 111 113 116 118 120 123 126 129 131 134 136 137 138 138 140 141 142 143 143 143 143 143 143 142 142 143 143 143 143 143 143 142 142 142 143 144 144 145 144 144 143 142 143 144 144 145 145 146 147 147 146
58 57 55 55 54 53 52 50 48 47 47 48 50 52 54 57 60 63 66 68 71 74 77 79 82 85 88 90 93 96 98 100 102 104 107 109 111 113 115 117 119 122 125 128 131 133 135 136 137 137 139 140 141 142 143 143 143 143 143 142 143 143 143 143 143 142 142 141 141 142 143 143 144 144 144 143 143 143 143 143 143 144 145 146 146
58 57 56 55 54 52 51 49 47 46 45 45 46 48 49 52 54 57 60 64 67 69 72 74 76 80 83 85 88 91 93 96 98 101 104 106 108 109 111 112 114 117 119 122 125 128 130 132 134 135 136 136 138 139 141 142 142 143 142 142 142 142 142 142 143 142 142 141 141 141 141 142 142 143 144 144 144 143 142 142 141 142 142 143 144
58 57 57 56 55 53 51 48 46 45 44 44 44 44 45 47 50 52 54 58 61 64 68 70 71 74 78 80 82 85 88 91 94 97 100 103 104 105 107 108 110 112 115 118 120 122 125 127 130 132 133 134 135 136 137 139 141 141 141 141 141 141 141 141 141 142 142 141 141 141 141 141 141 142 143 143 144 143 143 143 142 141 141 141 141
63 60 58 57 56 55 52 49 46 44 43 43 43 44 44 45 47 48 49 52 55 58 61 64 67 69 73 75 77 80 82 85 89 93 96 98 99 101 103 104 105 107 110 113 116 118 121 123 126 128 130 131 132 133 134 135 137 139 140 140 140 140 140 140 140 140 141 141 141 141 141 141 141 141 141 141 142 142 143 144 143 143 142 141 141
67 64 61 60 58 56 54 51 49 46 43 42 42 43 44 45 47 47 47 49 51 52 54 57 61 64 68 71 73 76 78 81 85 88 90 92 94 96 98 100 101 103 105 108 110 113 116 119 122 124 126 128 129 130 131 132 134 135 136 137 138 138 138 138 138 139 139 140 140 141 141 141 141 141 140 140 141 141 142 142 143 144 143 143 142
70 66 63 60 59 57 55 53 50 48 45 43 43 42 43 43 45 46 47 48 49 50 51 53 56 60 63 65 68 72 75 77 80 83 85 88 90 91 93 96 98 99 101 103 105 108 110 114 117 119 122 124 126 127 128 130 131 132 133 134 135 136 136 137 137 137 138 138 139 140 140 140 141 141 140 139 139 140 140 141 142 143 143 144 144
72 68 64 62 60 58 56 54 51 48 46 45 44 44 43 43 43 44 45 47 49 49 50 52 53 55 57 60 63 66 69 72 75 78 81 84 86 87 89 92 94 97 98 99 101 103 106 108 111 114 117 119 122 123 125 126 128 129 130 131 132 133 134 135 136 136 137 137 137 138 139 139 140 140 140 139 139 139 139 140 141 141 142 143 144
77 71 66 63 60 58 56 54 52 49 47 45 44 44 44 44 43 43 43 44 47 48 50 51 51 52 54 57 60 62 65 67 69 73 76 79 82 83 85 87 90 93 95 96 98 100 102 104 106 108 111 114 117 119 121 123 124 126 127 128 128 129 131 133 134 135 135 136 136 137 137 138 139 139 139 139 139 139 139 139 140 141 141 142 144
83 76 71 66 62 59 57 54 52 49 47 45 45 44 43 43 43 43 42 43 44 46 47 49 50 51 53 55 56 58 61 63 65 68 70 73 77 79 81 83 86 89 91 93 95 97 99 100 101 103 106 108 111 114 117 119 121 122 123 124 125 126 128 130 132 133 134 134 135 136 136 137 138 138 139 139 139 140 140 139 140 140 141 142 143
90 82 76 71 67 63 60 58 55 52 49 47 46 45 43 42 41 41 41 41 42 43 44 46 48 50 51 52 53 55 57 60 62 64 66 69 71 74 76 78 80 84 87 89 91 93 95 96 97 98 100 103 106 109 112 114 117 119 120 120 121 122 123 125 127 128 131 133 134 134 135 135 136 137 138 139 139 139 140 140 140 140 140 141 142
97 88 81 76 71 67 64 61 58 54 51 49 47 46 45 43 42 41 40 40 41 41 42 43 44 47 49 50 51 53 55 57 59 61 63 65 67 69 71 73 75 78 82 85 87 89 91 92 93 94 96 98 101 104 107 109 112 114 116 116 116 117 119 121 123 124 126 129 131 132 133 134 134 135 136 137 138 139 139 140 140 140 140 140 141
102 94 86 80 75 71 67 64 60 56 53 49 48 46 45 44 42 42 40 39 39 40 40 41 42 43 45 47 50 51 53 54 55 57 59 61 63 65 67 68 70 72 76 79 82 85 87 88 89 89 91 93 97 99 101 104 107 109 110 111 112 113 116 118 120 121 122 124 126 128 130 131 133 133 134 135 136 138 138 139 139 140 140 141 141
106 98 91 84 78 74 69 66 62 59 56 53 51 49 46 44 42 41 41 39 39 38 39 40 40 41 42 44 46 49 51 52 53 54 56 58 60 62 64 65 67 68 70 73 76 80 82 83 84 85 86 89 93 95 96 97 100 103 104 105 108 110 113 116 117 117 118 119 121 124 126 128 130 132 133 134 135 136 137 138 139 140 140 140 141
110 102 95 87 81 76 71 68 65 63 60 57 54 51 49 46 44 42 41 40 39 38 38 38 38 39 39 41 43 45 47 49 51 52 53 55 57 59 60 61 63 65 66 68 70 73 76 78 79 79 81 84 87 90 91 92 94 96 97 100 102 105 109 113 113 114 115 117 119 121 122 124 126 129 131 133 134 135 136 137 138 139 140 140 141
114 106 99 91 84 78 75 71 68 65 62 59 56 53 50 48 46 44 42 41 40 38 38 37 37 36 37 38 40 42 44 46 48 49 51 52 53 55 57 58 59 61 63 65 66 67 70 72 74 74 76 79 82 85 87 87 88 90 91 94 97 101 105 108 110 111 113 115 117 119 120 121 123 126 128 130 132 133 135 136 137 139 140 140 141
118 111 103 95 88 82 78 74 70 66 63 61 58 55 51 49 47 46 44 42 41 40 38 38 37 36 35 35 37 39 41 43 44 46 47 49 50 51 53 54 56 57 59 61 63 63 64 66 68 70 72 73 76 80 82 83 83 84 85 89 93 97 100 103 105 107 110 112 114 116 117 119 121 123 125 127 129 131 133 135 136 138 140 141 141
120 116 108 100 93 86 80 75 71 68 64 62 60 57 54 50 48 47 45 44 42 41 39 38 37 37 36 35 35 35 37 39 41 42 44 45 46 48 49 50 52 54 56 57 59 60 61 62 63 65 67 69 71 75 78 79 78 78 80 84 88 93 97 100 102 104 106 109 111 113 115 116 119 121 122 124 126 128 130 133 135 137 139 140 141
120 118 113 106 100 92 84 78 73 70 66 63 61 58 56 53 50 47 45 44 43 41 40 39 37 36 36 36 35 35 35 36 37 39 40 42 43 44 45 46 48 50 52 54 56 57 58 59 60 61 62 64 67 70 73 74 75 74 76 79 85 91 95 98 100 102 104 106 108 110 112 113 115 118 119 121 124 126 128 131 133 135 138 139 140
122 120 118 113 106 98 90 82 77 73 69 66 63 60 58 56 52 49 46 44 42 41 39 38 37 35 34 33 34 34 35 35 35 36 37 38 39 41 41 42 44 46 48 50 52 54 55 56 57 58 59 60 62 65 68 70 71 72 73 76 81 86 91 95 97 99 101 102 104 106 108 110 113 115 117 119 121 124 127 129 131 133 135 137 138
124 122 121 118 111 103 96 88 81 76 73 69 66 63 60 57 55 51 48 44 42 41 39 38 37 36 34 33 31 32 33 33 34 34 34 35 36 37 38 38 40 42 44 46 48 50 52 54 54 55 56 56 58 60 63 65 67 69 71 73 76 81 85 89 92 94 96 98 100 102 104 107 110 112 115 117 120 123 125 127 129 131 133 135 136
127 124 123 120 116 108 101 94 87 81 77 74 70 66 62 59 56 54 50 46 43 41 39 37 36 35 35 34 32 30 30 31 32 32 32 33 33 34 34 35 37 39 40 43 45 47 49 51 52 52 53 54 55 56 58 61 64 66 68 71 73 76 80 84 88 90 92 94 96 99 102 106 109 111 113 116 118 121 123 124 126 128 130 132 134
130 128 125 122 119 113 107 100 93 86 80 77 73 70 66 62 59 55 52 49 45 42 39 37 35 34 33 33 33 31 30 29 29 30 30 31 31 31 32 32 34 35 37 39 42 44 46 47 49 50 50 51 53 54 55 57 60 63 66 68 71 73 77 81 85 88 91 94 96 99 103 106 108 110 112 114 115 117 119 121 122 124 126 127 129
132 130 128 125 121 117 112 105 98 91 84 79 76 73 70 66 62 58 55 51 47 44 40 38 36 34 33 32 31 31 31 30 29 29 29 29 29 28 29 30 31 33 34 36 38 40 42 44 46 47 48 49 50 51 53 54 56 59 63 66 68 71 74 77 81 85 89 93 96 98 101 104 106 107 109 110 112 113 114 116 118 119 121 122 124
135 133 131 128 124 120 116 110 104 97 90 83 79 76 73 69 65 62 58 55 50 46 43 40 38 35 33 31 30 29 29 29 29 29 28 28 27 26 26 28 30 31 31 33 35 37 39 41 43 44 46 47 47 48 50 52 54 56 59 62 65 68 71 73 76 80 84 88 91 94 97 99 100 102 104 106 108 109 111 112 113 115 116 117 119
136 135 133 130 127 124 120 115 109 103 96 89 83 78 75 73 69 65 62 58 54 50 46 43 40 37 34 32 30 29 28 28 28 28 27 26 26 25 24 25 27 29 30 30 32 34 35 37 39 40 42 44 45 46 47 49 51 53 55 58 61 64 67 70 72 75 78 81 85 88 91 93 95 97 99 101 103 106 108 109 111 112 112 113 115
136 136 134 132 130 127 123 119 113 107 101 94 88 82 78 75 73 69 65 62 58 54 50 46 42 39 36 33 31 29 28 27 26 26 26 26 25 24 23 22 24 26 28 28 29 31 32 33 35 37 38 40 42 44 45 47 48 50 52 54 57 60 62 65 68 70 73 75 78 81 84 87 90 92 95 96 98 100 102 104 106 108 110 111 112
135 135 135 133 131 129 126 122 117 112 106 99 93 87 81 77 75 72 69 65 62 58 55 51 46 42 39 36 34 31 29 27 26 25 25 25 24 23 22 21 21 23 25 26 26 27 28 30 31 33 35 36 38 40 42 44 46 48 49 51 54 57 60 62 65 67 69 72 74 76 79 82 84 86 88 90 92 94 96 98 101 103 106 108 110
134 135 135 134 132 130 128 125 121 116 110 104 98 92 86 80 77 74 71 68 64 61 58 55 52 48 43 39 37 34 32 29 27 26 25 25 24 23 21 20 19 20 22 24 24 24 25 26 27 29 31 33 35 37 39 41 43 45 48 50 52 55 57 60 62 64 66 68 70 72 75 77 80 82 83 85 87 89 91 93 96 99 101 104 106
133 134 134 134 133 131 129 127 124 120 115 109 102 96 91 85 80 76 73 70 67 63 60 58 56 53 49 44 40 37 34 32 30 28 26 25 24 23 22 20 19 18 19 21 22 22 22 23 24 26 28 30 32 34 36 38 40 43 45 47 49 51 53 54 57 59 61 64 66 69 71 73 76 78 80 82 84 86 88 90 93 95 97 99 101
132 133 134 134 133 132 130 128 126 123 120 115 108 101 95 89 84 79 75 73 69 66 63 60 58 56 53 49 45 41 37 34 32 30 28 26 25 24 23 21 20 18 17 18 19 21 21 21 21 23 25 28 30 33 34 36 38 40 42 44 46 48 50 51 53 55 58 60 63 65 68 70 72 74 75 78 80 82 84 86 88 90 92 94 96
131 132 133 134 133 132 131 129 127 125 122 119 114 107 100 94 88 83 78 75 72 68 65 62 59 57 55 53 50 46 41 37 34 32 30 28 26 24 23 23 22 20 18 16 16 18 19 20 20 21 23 25 28 31 33 35 37 39 40 42 44 46 48 49 51 53 56 58 60 62 64 66 68 70 72 73 75 77 78 80 82 85 87 89 92
131 132 133 133 133 133 132 130 128 126 124 121 117 112 105 98 92 87 82 77 74 71 67 63 60 58 56 55 53 50 46 42 38 34 32 30 28 26 24 23 22 22 20 18 16 16 16 17 19 20 21 23 25 28 30 32 35 37 39 41 42 44 46 47 49 52 54 57 59 60 62 64 66 67 69 70 72 73 75 76 78 80 83 85 87
130 131 132 132 133 133 132 131 130 128 125 122 119 116 110 103 96 91 86 81 76 73 70 66 62 59 57 55 54 52 49 46 42 39 35 32 30 28 26 24 23 22 21 20 19 17 16 15 16 18 20 22 23 26 28 30 32 34 36 38 40 42 44 46 49 51 54 56 58 59 61 62 64 65 67 68 70 71 72 73 75 77 80 81 83
129 130 131 131 131 132 132 132 131 129 126 123 120 117 113 108 101 95 90 84 79 75 72 68 64 61 58 56 54 53 51 49 45 42 39 36 33 31 29 27 25 23 22 21 20 19 18 17 16 16 17 19 22 24 26 28 30 31 33 35 37 40 43 45 48 51 53 55 57 58 60 61 62 64 65 66 67 69 70 71 73 75 77 78 80
129 130 130 131 131 131 131 131 131 130 128 125 121 118 115 111 105 99 93 88 83 78 74 71 67 63 60 57 55 53 52 51 48 45 41 39 36 33 31 29 27 26 23 22 20 20 19 19 18 17 16 17 19 21 24 26 28 30 31 33 35 38 40 43 45 48 50 52 54 56 58 59 60 62 63 64 65 67 68 69 71 72 74 75 77
127 129 130 130 131 131 131 131 131 131 129 126 123 119 116 112 108 102 96 90 86 81 77 73 69 66 62 58 56 53 52 51 49 48 44 41 38 35 33 30 29 27 25 23 22 20 19 19 19 18 18 18 18 19 21 23 26 28 29 31 33 36 38 40 42 44 46 48 50 52 54 56 57 58 59 61 62 64 66 67 68 69 70 72 74
126 127 129 129 130 130 130 131 131 131 130 128 125 120 116 113 110 105 100 94 89 84 79 75 71 68 64 61 57 55 52 50 49 48 47 44 41 38 35 32 30 28 26 25 23 22 20 19 18 18 19 19 19 19 20 21 23 25 27 29 31 33 36 38 40 42 43 45 47 49 51 53 54 55 56 57 59 61 63 64 65 66 68 70 72
125 126 127 128 129 129 130 130 131 131 130 129 127 123 118 114 111 107 103 98 92 87 82 78 74 70 67 64 60 57 54 51 49 48 46 45 43 40 37 35 32 30 28 26 25 23 22 21 20 19 19 19 19 19 19 20 21 23 24 26 28 31 33 35 37 39 41 43 45 47 49 51 52 53 54 55 57 59 60 61 62 63 66 68 69
124 126 126 127 127 128 128 129 130 130 130 130 128 125 121 115 111 108 105 101 96 91 85 80 76 72 68 65 62 59 56 54 51 48 47 45 44 42 39 36 34 32 30 28 26 25 23 22 21 20 20 20 20 20 19 20 20 21 23 24 26 28 30 32 34 36 38 40 42 44 46 47 49 50 51 53 55 57 58 59 60 62 64 66 66
124 125 126 126 126 127 127 127 128 129 129 129 128 126 123 117 112 108 105 102 99 94 89 84 78 74 70 66 63 60 58 56 53 50 47 45 44 42 41 38 35 33 31 29 27 26 25 23 22 21 21 20 20 20 20 20 20 21 21 23 24 26 28 29 31 33 35 37 39 40 42 44 45 47 48 50 53 55 56 57 58 60 62 62 62
123 125 125 125 126 126 126 126 127 128 128 128 128 126 124 119 114 109 105 102 100 96 92 87 81 76 71 68 64 61 58 56 55 53 50 47 45 43 41 40 38 35 32 30 28 26 25 24 23 22 21 21 21 21 21 22 21 21 21 22 23 24 26 27 29 30 32 34 35 37 39 40 42 43 45 48 50 52 54 55 56 56 57 58 58
122 124 125 125 125 125 125 126 126 127 127 127 127 126 124 120 115 110 105 102 99 97 94 90 85 79 73 69 66 63 59 56 54 53 52 49 47 44 42 40 39 38 35 33 30 28 26 25 24 23 22 21 20 21 21 22 22 23 23 23 23 24 25 26 27 28 29 31 32 34 36 37 39 40 42 44 47 49 51 52 52 52 52 53 54
121 123 124 125 125 125 125 125 126 126 127 127 127 126 124 121 116 111 106 101 98 96 94 92 88 82 76 71 67 64 61 58 54 52 51 50 48 46 44 42 39 38 37 35 33 30 28 26 24 23 22 21 21 20 20 20 21 22 23 24 24 25 25 26 26 27 28 29 30 31 32 34 36 38 39 41 43 46 47 48 48 48 48 49 50
120 123 124 125 125 125 125 125 125 126 126 127 126 125 124 121 117 111 106 101 98 95 94 92 90 86 80 74 69 65 63 60 57 53 51 50 48 46 44 43 42 39 37 36 35 34 31 29 26 25 23 22 21 21 21 20 20 20 21 23 24 25 25 26 27 27 28 28 29 30 30 32 33 34 36 38 40 42 44 45 45 45 45 46 48
120 122 124 124 125 125 125 125 125 126 126 126 126 125 124 122 117 112 106 101 98 95 93 91 90 88 83 77 72 68 64 61 59 56 53 50 49 47 44 42 41 41 39 36 35 35 34 32 29 27 25 23 22 21 21 21 20 20 19 20 21 22 24 25 26 27 28 28 29 30 30 31 31 32 33 35 37 39 41 42 43 43 43 43 45
120 122 123 124 124 125 124 124 125 125 126 126 125 124 123 121 118 113 107 102 97 94 92 91 89 88 85 80 74 70 66 63 60 58 55 52 50 48 46 42 40 39 39 37 35 33 33 33 31 29 27 25 23 22 22 21 21 21 20 20 20 20 21 22 23 25 26 27 28 29 30 31 31 32 32 33 34 35 37 39 40 41 42 42 43
120 122 123 124 124 124 123 123 123 124 125 125 125 124 122 120 118 113 108 102 97 93 91 89 88 87 85 81 76 71 67 64 60 59 58 55 52 50 48 45 41 39 38 37 35 32 31 30 30 30 28 27 25 23 22 22 21 21 21 20 20 20 20 20 21 22 24 25 26 28 29 30 31 31 32 32 33 33 34 36 38 39 40 41 41
121 122 123 123 123 123 122 122 122 123 124 125 124 123 121 120 117 114 108 103 97 93 89 88 86 85 84 81 77 72 68 64 61 57 56 56 55 52 50 48 45 41 38 37 36 34 32 31 30 29 29 28 26 25 23 22 22 22 21 21 21 20 20 20 20 21 22 23 24 26 28 29 30 30 31 31 32 32 33 34 35 37 38 39 40
120 122 122 122 122 122 121 121 122 122 123 124 123 122 121 119 117 113 109 104 98 93 89 86 85 84 82 81 78 74 69 65 62 58 55 53 53 53 52 50 48 45 41 39 37 36 34 33 32 30 28 28 27 26 25 24 23 22 22 21 21 21 21 21 21 21 21 21 22 24 25 27 28 29 30 30 31 32 32 33 33 34 36 37 38
Wind_Direction
325 322 318 315 311 307 302 296 290 285 280 276 272 270 268 266 264 262 261 259 258 257 255 255 254 253 253 252 252 252 252 252 251 251 250 250 250 249 249 249 249 249 249 249 249 248 248 247 246 246 246 246 246 246 245 245 245 245 245 244 244 243 243 242 242 242 242 242 242 242 242 243 243 243 243 243 243 243 243 243 243 243 243 243 243
330 326 322 319 315 312 308 303 297 291 285 280 276 273 270 268 266 264 263 261 259 258 256 255 255 254 254 253 253 252 251 250 250 250 250 250 250 250 249 249 249 249 249 249 249 249 249 248 247 247 246 246 246 246 246 246 245 245 245 244 244 244 243 243 243 242 242 242 241 242 242 242 242 242 242 242 243 243 243 242 242 242 243 243 243
334 330 327 323 320 317 313 309 304 298 292 287 282 277 273 270 268 266 264 263 261 259 258 256 255 254 254 253 253 253 252 251 251 250 249 248 248 247 247 247 248 248 248 248 249 249 249 249 249 248 247 247 246 246 246 246 246 245 245 245 244 244 244 243 243 243 242 242 242 241 241 241 241 241 241 241 242 242 242 242 242 242 242 243 243
339 335 331 328 324 321 318 314 310 305 299 294 288 284 280 276 272 268 266 264 263 262 260 259 258 257 256 254 253 253 252 252 251 251 250 249 248 247 246 245 245 245 246 246 247 247 248 248 249 248 248 248 247 246 246 246 246 246 245 245 245 244 244 244 243 243 243 242 242 242 242 241 241 241 241 241 241 241 242 242 242 242 242 242 242
344 340 336 333 330 326 323 319 314 310 306 301 296 291 287 282 278 274 270 267 265 263 262 261 259 258 258 257 255 254 253 252 252 251 251 250 250 250 249 247 245 244 243 243 244 244 245 246 247 247 247 247 247 247 246 246 246 246 246 245 245 245 244 244 244 243 243 242 242 242 242 242 241 241 241 241 241 241 241 241 241 242 242 242 242
348 346 342 338 335 331 328 324 319 315 311 307 303 299 294 289 284 280 276 272 269 266 264 262 260 259 258 257 256 255 254 253 253 252 251 251 251 251 251 250 249 247 245 244 243 242 243 243 244 245 245 246 246 246 246 245 245 245 245 245 245 245 245 244 244 244 243 243 242 242 242 242 242 241 241 241 241 241 241 241 241 241 241 242 242
351 349 346 343 339 336 332 329 325 321 316 312 307 303 299 295 291 287 283 279 275 272 269 266 263 261 258 257 256 255 253 252 252 252 252 252 252 251 251 251 251 250 248 247 245 243 242 242 242 243 243 244 244 244 245 245 245 245 245 245 245 245 244 244 244 244 243 243 243 242 242 242 242 242 241 241 241 241 241 241 241 241 241 241 241
354 351 349 346 343 340 336 333 330 326 322 318 313 309 304 300 296 292 289 284 281 276 272 269 265 263 261 260 258 256 254 253 252 252 252 252 251 251 251 251 251 250 250 249 248 247 245 244 243 242 242 243 243 243 243 243 244 244 244 244 244 244 244 244 244 243 243 243 243 242 242 242 242 242 242 241 241 241 241 241 241 241 241 241 241
357 354 352 350 346 343 340 337 334 330 327 323 319 315 311 306 301 296 292 288 285 281 276 272 268 266 265 263 261 259 257 255 254 253 252 252 252 250 249 250 250 249 249 248 248 247 247 245 244 244 243 243 243 243 243 243 243 243 243 243 242 243 243 243 243 243 242 242 242 242 242 242 242 241 241 241 241 241 241 241 241 241 241 241 241
359 357 355 353 350 347 343 340 337 334 330 327 323 320 316 312 308 302 297 292 288 284 281 278 274 271 268 265 263 261 260 258 256 255 254 253 253 252 250 249 249 249 249 248 247 246 246 245 244 244 244 243 243 243 243 243 243 242 242 242 242 242 242 242 242 242 242 242 242 241 241 242 242 241 241 241 241 240 240 240 240 240 241 241 242
1 359 357 355 353 350 347 344 340 337 333 330 327 324 320 316 312 308 304 298 293 288 285 282 279 275 271 267 265 263 262 260 259 257 255 254 254 253 252 250 249 249 249 248 247 246 246 245 244 243 243 243 243 243 243 243 243 243 242 241 241 241 241 241 241 241 241 241 241 241 241 241 241 241 241 241 240 240 240 240 240 240 240 240 241
2 1 359 357 355 353 351 348 345 342 338 334 331 328 325 321 317 313 308 304 298 293 289 285 281 278 275 271 268 265 263 261 260 259 257 256 255 254 253 252 250 250 249 249 248 247 246 246 245 244 243 243 242 242 242 242 242 243 243 242 241 241 242 242 242 241 242 242 241 241 241 241 241 241 241 241 240 240 240 239 239 239 239 239 240
4 2 0 359 357 355 354 351 349 346 342 338 335 332 329 326 322 317 313 309 303 299 294 288 284 281 278 275 272 268 265 262 260 259 258 257 257 256 255 254 252 251 250 249 249 248 247 247 246 245 244 244 243 242 241 241 241 241 242 242 242 241 241 242 242 242 241 242 242 241 241 241 241 241 241 241 240 240 240 239 239 239 239 239 239
4 3 2 0 359 357 356 354 351 348 345 342 339 336 333 330 326 322 318 314 309 305 299 294 288 284 280 278 275 272 269 266 263 261 259 258 257 257 256 255 254 252 251 250 249 249 248 247 246 245 245 244 244 243 242 241 241 241 241 241 241 241 241 241 241 241 241 241 242 242 241 241 241 241 241 241 241 240 240 240 239 239 239 239 239
5 4 3 1 0 359 357 355 354 351 349 346 343 340 338 334 330 326 322 319 314 310 305 300 295 289 284 280 277 275 273 270 267 264 261 259 258 257 257 256 256 254 252 251 250 250 249 249 247 246 245 245 245 244 243 242 241 241 241 241 240 240 241 241 240 240 240 240 241 241 241 241 241 241 241 241 240 240 240 240 240 239 239 238 238
6 5 4 3 1 360 358 357 356 355 353 350 346 343 341 338 334 331 327 323 319 315 310 305 301 295 290 285 281 278 275 273 271 268 264 261 259 258 257 256 256 256 255 253 251 250 250 250 248 247 246 245 245 245 245 243 242 241 240 240 240 239 240 240 240 240 239 239 239 239 240 240 241 241 241 241 240 240 240 240 240 240 239 239 238
7 6 5 4 2 1 0 359 358 357 355 352 349 347 344 341 338 335 332 328 324 320 316 311 307 301 296 291 286 282 279 276 274 271 268 265 262 259 258 257 256 256 256 256 255 252 251 250 249 248 246 245 245 245 245 243 242 241 240 239 239 239 239 239 239 239 239 239 238 238 238 238 239 240 240 240 240 240 240 240 240 240 239 239 238
8 7 6 5 4 3 2 1 360 358 356 354 352 350 348 345 343 340 336 333 329 326 322 318 313 309 303 297 291 286 283 280 277 275 272 269 266 263 260 258 257 256 255 256 256 255 253 251 250 248 247 245 245 245 245 243 241 240 239 239 239 239 239 239 239 238 238 238 238 238 238 238 238 238 238 239 239 240 240 239 239 239 239 239 238
9 8 7 6 6 5 3 2 1 360 358 357 355 353 351 349 347 344 340 337 333 330 327 324 320 315 310 305 299 292 287 284 281 278 276 273 270 267 263 261 259 257 256 255 255 255 255 253 251 249 247 246 245 244 244 244 242 240 238 237 237 238 238 237 237 237 237 237 237 237 238 238 238 238 237 238 238 239 239 239 239 239 239 239 238
9 9 8 7 7 6 5 3 2 2 1 359 358 356 355 353 351 348 344 340 336 332 330 327 325 320 315 311 306 300 293 288 284 282 279 277 274 270 267 264 261 259 257 256 256 255 255 254 253 251 248 246 245 244 244 243 242 240 237 235 235 236 236 236 236 236 236 236 236 237 237 237 238 238 238 238 238 238 238 239 239 239 239 239 239
9 9 9 9 8 7 6 4 3 3 3 2 0 359 358 356 354 351 348 343 339 335 332 329 327 325 320 315 310 306 300 294 289 285 282 279 277 274 271 267 263 261 259 257 257 256 255 254 254 252 250 248 245 244 243 242 241 240 238 236 234 234 235 236 236 236 236 236 236 236 237 237 237 238 238 238 238 238 238 238 238 239 239 239 239
9 10 10 10 9 7 6 6 4 4 4 3 2 2 1 359 357 355 351 347 343 338 334 331 330 328 325 320 315 310 305 300 296 291 287 282 278 275 273 270 266 263 260 258 257 256 256 255 253 252 251 249 247 244 243 242 240 239 238 236 235 234 234 235 236 236 236 236 237 237 237 237 237 237 237 238 238 238 238 238 238 238 239 239 239
9 10 10 10 9 8 7 7 6 5 5 4 4 3 3 2 0 358 355 351 347 342 337 335 333 331 329 326 322 316 310 305 301 297 293 288 283 279 275 271 268 265 261 259 257 256 255 255 254 252 251 250 248 246 243 242 240 239 237 236 235 234 233 233 234 234 235 235 235 235 236 237 237 237 237 238 238 238 239 239 239 239 239 239 239
10 10 10 10 10 9 8 7 7 6 5 5 4 4 3 3 2 1 359 355 351 346 341 339 336 335 333 330 328 324 319 313 308 303 298 294 289 285 280 274 270 266 263 260 258 256 255 254 254 253 252 250 249 247 245 242 240 239 237 236 236 235 234 232 232 232 232 233 232 233 234 235 236 237 238 238 239 239 240 240 240 240 241 240 240
10 10 10 9 10 10 9 8 8 7 6 6 5 5 4 3 3 3 2 359 355 349 346 344 342 340 337 335 332 329 326 322 317 312 306 301 296 291 286 280 274 268 265 262 260 258 256 254 253 253 252 250 249 248 246 244 241 240 238 236 235 235 235 234 233 233 232 232 232 233 233 234 235 237 238 239 240 240 241 241 241 241 242 242 242
9 9 9 9 9 9 10 10 9 8 7 6 6 6 5 4 3 3 3 2 359 355 351 348 346 344 341 339 337 334 331 327 323 320 314 309 303 298 292 286 280 274 268 264 262 260 258 256 254 253 252 251 250 248 247 245 243 241 239 238 236 235 235 235 235 235 234 234 234 234 235 235 236 237 237 238 239 240 241 242 242 242 242 243 243
8 9 9 9 9 9 9 10 10 9 8 7 6 6 6 4 3 3 3 2 1 360 357 353 349 347 345 343 342 340 337 333 328 324 320 316 310 305 299 292 286 280 274 268 265 263 261 260 258 255 253 252 251 249 248 247 245 243 242 241 239 238 236 236 236 236 236 236 236 236 236 237 237 237 237 238 238 239 240 241 242 243 243 243 243
7 8 9 9 9 8 8 9 10 10 9 8 7 6 6 5 4 3 3 2 2 1 0 358 354 350 348 347 346 344 342 340 336 330 326 321 316 311 305 299 292 287 281 275 269 266 264 263 262 260 256 253 251 249 248 247 246 245 244 243 242 241 239 238 237 237 237 237 237 237 237 238 238 238 238 238 238 239 239 240 241 242 243 244 244
6 7 8 8 9 9 8 8 9 10 10 9 8 7 6 6 5 4 3 2 1 1 1 0 358 355 352 350 349 348 347 344 343 339 335 329 323 317 311 305 298 292 287 282 276 270 267 265 263 262 260 257 254 251 248 247 246 245 244 243 242 241 240 238 237 237 236 236 237 237 238 238 239 239 239 240 240 240 240 240 241 241 242 242 243
5 6 7 8 8 9 8 8 8 9 10 10 9 7 6 6 6 5 3 2 1 1 1 1 360 359 356 353 351 351 350 349 346 345 342 338 332 326 319 313 305 298 292 288 283 277 272 267 264 261 260 258 256 254 251 248 246 245 244 244 243 242 241 241 240 239 238 238 237 237 237 237 238 238 239 239 239 240 240 240 240 240 241 241 242
4 5 6 7 8 8 9 8 8 8 9 10 10 9 7 6 6 5 4 3 2 2 2 1 0 360 358 357 355 352 352 351 350 348 347 344 340 334 328 322 315 306 298 293 289 284 278 272 267 262 258 255 254 253 252 251 249 246 245 245 245 245 245 245 245 244 243 242 241 240 239 238 238 238 238 238 238 238 238 239 239 240 240 240 241
3 4 5 6 7 7 8 9 8 8 8 8 9 9 9 7 6 5 5 4 2 2 2 1 1 360 359 358 357 355 353 353 352 351 349 348 345 341 336 331 324 317 308 299 294 290 284 277 271 266 261 257 253 250 248 248 248 248 246 246 245 245 246 246 246 246 245 245 244 243 242 242 241 240 240 240 239 239 239 240 240 241 241 241 241
2 3 4 5 5 7 8 9 9 8 8 8 8 9 9 9 7 5 5 4 3 2 2 2 1 0 359 358 357 356 355 354 353 353 351 350 348 346 342 338 332 326 319 310 301 295 290 284 276 269 264 261 258 254 251 248 246 245 245 245 244 244 244 244 245 245 245 246 245 245 245 244 244 243 243 242 242 241 241 241 241 241 242 241 242
1 2 3 3 4 5 7 8 9 9 8 7 7 7 8 9 8 7 5 4 3 2 2 2 1 1 360 359 358 357 355 354 353 353 353 352 350 348 347 344 339 334 328 321 313 303 295 289 282 275 268 263 259 257 255 253 250 248 246 245 244 243 243 243 243 244 244 244 245 245 245 245 245 245 245 244 244 243 243 242 242 242 242 242 242
0 1 2 2 3 4 5 7 8 9 9 8 7 6 7 8 8 8 6 4 3 3 2 1 1 1 1 360 358 357 356 355 354 353 353 353 352 351 349 347 344 339 334 329 322 314 305 294 286 280 275 269 264 259 256 254 253 252 250 248 246 245 243 242 242 242 242 243 243 244 244 244 245 245 245 245 245 244 244 244 243 243 243 243 243
359 360 1 1 2 3 4 5 7 8 8 8 7 6 6 6 7 8 7 6 4 3 2 1 1 1 1 0 359 357 356 355 355 353 352 351 352 352 351 348 346 343 339 334 328 322 314 306 295 286 279 274 269 265 261 257 253 252 250 249 248 247 245 244 243 242 242 242 243 243 243 243 243 244 245 245 245 245 245 244 244 244 244 244 244
358 359 359 0 1 2 3 4 5 7 8 8 7 6 5 5 6 7 8 7 5 3 2 1 0 0 1 1 360 359 357 356 354 353 352 351 350 351 351 350 348 344 341 337 332 326 320 315 308 298 289 279 273 269 265 262 258 254 251 249 248 248 248 247 247 246 246 246 246 246 246 245 245 244 245 245 246 246 246 245 245 244 244 244 244
357 358 358 359 360 1 2 3 4 5 6 7 7 7 5 4 4 5 6 7 7 4 2 1 0 360 359 0 0 360 359 357 355 353 352 351 350 349 349 349 349 346 342 338 335 330 325 319 314 307 300 291 282 276 270 267 263 260 256 252 250 248 248 248 248 249 249 249 249 249 249 249 248 247 247 246 246 247 247 246 246 245 245 245 244
356 357 357 358 359 360 1 2 3 4 5 6 7 7 6 5 4 4 4 6 7 6 4 2 0 359 359 359 360 360 359 358 356 354 352 351 350 349 347 347 347 347 344 340 336 332 328 324 319 313 306 299 292 285 279 274 269 266 262 258 255 252 250 248 248 247 247 248 248 248 249 249 250 250 249 249 248 248 248 248 247 247 247 246 246
355 356 356 357 358 359 0 1 1 2 3 4 5 6 6 5 4 3 3 4 5 6 6 3 1 359 358 358 358 359 359 359 357 355 353 351 350 348 347 346 345 345 345 343 339 335 331 327 322 317 312 305 298 291 285 280 276 272 268 265 261 258 255 253 251 249 248 247 247 247 247 247 248 248 248 248 248 248 248 248 248 248 248 247 247
354 354 355 356 357 358 359 360 0 1 2 3 4 5 5 5 4 3 3 3 3 5 6 5 2 0 358 358 357 357 358 358 358 357 355 353 350 348 347 346 344 344 343 343 342 338 334 330 326 321 316 310 304 297 290 284 279 276 273 270 267 264 261 258 256 255 253 251 250 249 248 247 247 247 247 247 247 247 247 247 247 247 247 247 247
353 353 354 355 356 357 358 359 360 360 0 1 2 3 4 4 4 3 2 2 2 3 4 5 4 1 359 358 357 356 356 356 357 356 356 354 352 349 347 345 344 343 342 342 342 340 336 333 329 324 320 315 310 304 298 291 284 279 276 274 271 269 266 264 261 260 258 257 255 254 252 251 249 248 247 246 246 247 247 246 245 245 246 246 246
352 352 352 353 354 356 357 358 358 359 359 360 1 2 3 3 4 3 2 2 1 1 2 3 4 3 0 358 357 356 356 355 355 355 355 355 353 351 348 346 344 343 342 341 340 340 338 335 331 326 322 317 313 309 304 299 293 288 283 279 276 273 271 268 266 264 262 261 259 259 257 256 254 252 249 248 248 248 249 248 247 246 246 246 246
350 350 351 352 353 354 355 356 357 358 358 359 359 0 2 2 3 3 2 2 1 1 1 1 2 2 2 360 357 356 355 355 355 355 354 354 353 352 350 348 345 343 341 340 340 339 338 336 333 328 324 319 315 311 308 304 300 296 291 286 282 278 275 273 270 268 266 263 261 260 259 258 257 256 254 252 251 251 251 251 250 248 247 247 246
348 349 350 351 352 353 354 355 356 356 357 357 358 359 0 1 2 2 2 1 1 0 0 360 0 1 1 1 359 356 355 354 355 355 354 353 353 352 350 348 346 344 342 340 338 337 337 336 335 331 327 322 318 313 309 306 302 299 295 292 288 285 282 279 276 274 272 269 266 263 261 259 258 257 256 254 254 254 254 254 253 250 248 247 246
347 348 349 350 351 352 353 354 355 355 356 356 356 357 359 360 1 1 2 1 1 0 360 359 359 359 360 0 360 358 356 354 353 354 354 353 353 353 352 349 346 344 342 340 338 336 335 335 335 333 330 326 321 317 312 308 304 300 296 293 291 288 286 283 281 279 278 275 273 270 267 264 261 259 257 256 255 256 256 256 255 253 251 248 247
346 347 348 349 349 351 352 353 353 354 354 355 355 356 357 358 359 0 1 1 1 0 360 359 359 358 358 359 359 359 357 355 353 352 353 353 352 352 352 351 348 344 342 341 339 336 334 333 333 333 331 328 324 321 316 311 308 304 300 295 291 288 286 284 282 281 280 278 277 275 272 270 267 264 261 259 258 256 256 257 257 255 253 250 248
345 346 347 348 348 349 350 351 352 353 353 354 354 355 356 357 357 359 360 1 0 360 359 359 358 358 358 358 358 359 358 357 354 351 351 351 352 351 351 352 351 347 343 341 339 337 334 332 330 330 329 328 326 323 319 315 311 308 305 301 296 291 286 284 282 281 280 279 278 277 275 273 271 269 266 263 261 259 257 257 257 256 254 252 250
344 345 346 347 347 348 349 350 351 351 352 352 353 353 354 355 356 357 359 359 360 360 359 359 358 358 357 357 357 358 358 358 356 353 350 349 350 351 351 351 351 349 345 341 339 336 333 331 329 327 327 327 326 325 322 318 315 311 308 305 301 297 291 287 284 282 282 281 280 279 277 275 273 271 269 267 264 262 259 258 257 256 256 254 252
343 344 345 345 346 347 348 349 350 350 351 351 352 352 353 354 355 356 357 358 359 359 359 358 358 357 357 356 356 356 357 357 357 355 352 350 348 349 349 350 350 350 348 344 341 338 335 332 330 328 326 325 326 326 324 321 318 315 312 308 305 302 298 294 290 286 285 284 283 282 280 279 277 275 272 270 267 265 263 260 258 257 256 255 255
342 343 344 344 345 346 347 348 349 349 350 350 351 351 352 352 353 354 356 357 357 358 358 357 357 356 356 355 355 355 356 357 357 356 354 352 350 348 348 348 348 349 349 346 344 341 338 334 331 329 327 326 324 325 324 323 321 318 315 311 308 305 302 299 296 292 289 287 285 284 283 281 280 278 276 273 271 268 266 263 261 258 257 256 255
Height
10233 10226 10219 10214 10210 10206 10203 10199 10195 10191 10187 10183 10180 10177 10175 10174 10172 10171 10171 10172 10172 10172 10173 10173 10174 10175 10176 10177 10179 10182 10186 10188 10191 10195 10199 10202 10206 10210 10215 10219 10224 10228 10231 10235 10239 10244 10249 10254 10258 10263 10269 10275 10281 10286 10293 10299 10306 10312 10318 10325 10332 10340 10347 10353 10359 10367 10375 10383 10391 10397 10403 10410 10418 10426 10433 10439 10445 10450 10456 10464 10470 10474 10480 10486 10491
10227 10220 10213 10206 10201 10196 10192 10188 10185 10181 10177 10173 10170 10168 10165 10163 10161 10160 10159 10159 10159 10158 10158 10159 10160 10161 10162 10164 10164 10166 10169 10171 10173 10177 10181 10185 10189 10193 10199 10204 10209 10213 10216 10219 10223 10227 10232 10237 10242 10247 10252 10257 10263 10269 10274 10281 10288 10294 10300 10307 10314 10321 10329 10336 10342 10349 10357 10366 10373 10379 10386 10394 10401 10408 10415 10422 10427 10432 10438 10447 10453 10458 10463 10469 10475
10221 10213 10207 10200 10193 10188 10182 10178 10174 10171 10167 10163 10160 10158 10155 10153 10151 10150 10148 10147 10146 10145 10145 10145 10146 10147 10148 10150 10151 10152 10155 10157 10159 10161 10163 10165 10168 10172 10178 10184 10190 10195 10200 10204 10207 10211 10215 10220 10225 10230 10236 10241 10247 10252 10257 10263 10269 10276 10282 10289 10296 10303 10311 10318 10325 10332 10340 10348 10355 10361 10369 10377 10383 10390 10397 10403 10409 10414 10422 10430 10437 10442 10448 10453 10460
10218 10208 10200 10194 10187 10181 10176 10170 10165 10161 10157 10154 10150 10148 10145 10143 10141 10139 10138 10136 10135 10134 10134 10134 10135 10135 10135 10136 10137 10137 10140 10142 10144 10146 10147 10148 10151 10154 10158 10163 10169 10174 10179 10185 10190 10194 10198 10203 10208 10213 10218 10224 10230 10236 10241 10246 10251 10257 10264 10271 10278 10285 10292 10300 10307 10315 10323 10331 10338 10344 10352 10357 10365 10373 10379 10384 10392 10399 10407 10414 10421 10427 10433 10439 10446
10215 10205 10196 10188 10181 10174 10169 10164 10158 10153 10148 10144 10141 10138 10136 10134 10131 10129 10127 10125 10124 10123 10122 10123 10124 10124 10123 10124 10125 10125 10127 10128 10129 10131 10131 10133 10137 10140 10143 10147 10151 10154 10159 10164 10169 10175 10179 10184 10189 10194 10200 10206 10212 10219 10225 10230 10234 10240 10246 10253 10260 10267 10275 10282 10289 10297 10306 10314 10321 10328 10334 10339 10347 10355 10361 10369 10378 10385 10392 10398 10406 10412 10418 10424 10430
10207 10199 10191 10182 10175 10168 10161 10156 10151 10146 10142 10137 10133 10129 10127 10124 10121 10119 10117 10115 10113 10112 10111 10111 10111 10111 10110 10111 10112 10112 10114 10115 10115 10116 10117 10119 10123 10126 10128 10132 10135 10140 10143 10146 10150 10155 10160 10164 10169 10174 10180 10186 10192 10199 10207 10212 10217 10223 10229 10236 10242 10249 10257 10264 10272 10279 10287 10296 10304 10311 10317 10322 10330 10337 10345 10354 10362 10368 10374 10381 10389 10395 10401 10407 10414
10202 10193 10185 10177 10169 10162 10155 10149 10143 10139 10134 10130 10126 10122 10118 10115 10112 10110 10108 10106 10104 10103 10102 10101 10099 10098 10097 10097 10098 10098 10100 10101 10100 10101 10103 10106 10108 10111 10114 10117 10121 10125 10129 10132 10136 10140 10143 10147 10151 10156 10161 10167 10173 10179 10187 10193 10199 10205 10212 10218 10225 10232 10239 10247 10255 10262 10269 10277 10285 10292 10300 10307 10314 10320 10328 10337 10344 10352 10359 10365 10371 10377 10385 10392 10398
10200 10191 10183 10174 10166 10158 10150 10143 10137 10132 10127 10122 10118 10115 10111 10107 10103 10101 10098 10096 10094 10093 10091 10090 10088 10086 10086 10086 10086 10086 10086 10087 10088 10088 10090 10091 10093 10097 10101 10103 10105 10109 10112 10116 10122 10126 10130 10133 10136 10140 10145 10150 10155 10161 10168 10175 10180 10187 10194 10201 10208 10216 10222 10229 10237 10244 10250 10259 10266 10274 10282 10290 10297 10304 10311 10320 10328 10336 10344 10350 10355 10361 10369 10376 10381
10199 10190 10181 10172 10164 10155 10147 10140 10133 10127 10121 10116 10111 10107 10103 10100 10096 10093 10090 10087 10084 10082 10080 10079 10078 10077 10076 10075 10074 10074 10074 10075 10076 10076 10077 10077 10078 10083 10086 10087 10089 10092 10095 10099 10104 10109 10113 10118 10123 10127 10132 10136 10140 10145 10151 10157 10162 10168 10175 10183 10191 10199 10205 10211 10218 10225 10232 10240 10248 10255 10264 10271 10279 10287 10295 10304 10311 10319 10328 10334 10338 10345 10352 10357 10363
10198 10188 10179 10170 10162 10154 10145 10137 10130 10123 10117 10112 10106 10101 10096 10092 10088 10085 10082 10079 10075 10072 10070 10069 10068 10068 10067 10065 10064 10063 10063 10064 10064 10064 10065 10066 10066 10068 10071 10073 10075 10077 10079 10082 10086 10090 10094 10100 10106 10112 10117 10122 10126 10131 10136 10141 10145 10151 10158 10165 10173 10182 10189 10194 10201 10208 10215 10222 10229 10237 10245 10252 10260 10269 10278 10286 10293 10302 10310 10316 10322 10329 10336 10340 10344
10195 10185 10176 10167 10159 10150 10143 10135 10127 10120 10113 10107 10102 10097 10092 10087 10082 10078 10074 10071 10067 10064 10062 10060 10059 10057 10056 10054 10054 10054 10053 10053 10053 10053 10054 10054 10055 10055 10057 10060 10062 10064 10065 10067 10070 10073 10076 10082 10089 10095 10101 10107 10112 10116 10122 10127 10131 10136 10143 10150 10158 10167 10174 10179 10185 10193 10200 10205 10212 10219 10227 10234 10242 10250 10258 10267 10275 10283 10291 10298 10305 10311 10319 10325 10328
10191 10182 10172 10163 10154 10145 10137 10130 10123 10115 10108 10102 10096 10091 10086 10082 10077 10073 10068 10064 10060 10056 10054 10052 10050 10047 10046 10045 10044 10044 10043 10042 10042 10042 10042 10043 10043 10044 10045 10047 10050 10051 10052 10054 10057 10059 10062 10068 10074 10081 10087 10092 10097 10102 10107 10112 10117 10121 10127 10136 10145 10153 10159 10165 10171 10180 10187 10190 10196 10204 10210 10217 10224 10232 10240 10247 10255 10264 10272 10280 10287 10294 10302 10310 10313
10189 10179 10170 10160 10151 10142 10133 10126 10118 10111 10104 10098 10091 10086 10080 10076 10071 10067 10063 10058 10054 10050 10047 10044 10042 10039 10037 10035 10034 10033 10032 10032 10032 10032 10032 10032 10033 10033 10034 10036 10037 10039 10040 10042 10044 10047 10050 10055 10061 10067 10073 10078 10082 10087 10092 10097 10101 10105 10111 10121 10131 10139 10146 10150 10155 10164 10171 10174 10181 10189 10195 10201 10208 10216 10223 10229 10236 10245 10252 10260 10269 10277 10284 10292 10297
10188 10178 10168 10158 10149 10140 10131 10123 10116 10109 10101 10094 10087 10081 10075 10070 10065 10061 10056 10052 10048 10044 10040 10037 10034 10032 10030 10027 10025 10023 10022 10022 10022 10022 10023 10023 10023 10023 10024 10025 10026 10027 10029 10031 10033 10035 10038 10043 10049 10054 10060 10065 10067 10070 10076 10082 10087 10092 10099 10108 10116 10123 10128 10132 10138 10146 10154 10160 10166 10174 10180 10186 10192 10198 10205 10212 10219 10226 10233 10242 10251 10258 10265 10274 10280
10190 10178 10167 10157 10148 10139 10130 10122 10114 10105 10097 10090 10083 10077 10071 10065 10060 10055 10050 10047 10043 10038 10034 10030 10027 10025 10022 10020 10017 10015 10013 10012 10012 10012 10013 10013 10014 10014 10015 10015 10016 10017 10018 10020 10022 10024 10027 10031 10037 10042 10048 10051 10052 10055 10062 10069 10075 10081 10088 10096 10102 10108 10111 10114 10122 10130 10138 10145 10150 10156 10163 10170 10176 10182 10187 10194 10202 10208 10216 10224 10232 10238 10246 10256 10262
10193 10181 10168 10158 10148 10139 10130 10120 10111 10102 10094 10087 10079 10072 10066 10061 10055 10050 10045 10041 10037 10033 10029 10025 10021 10018 10015 10013 10010 10008 10006 10004 10003 10003 10003 10004 10004 10005 10006 10007 10007 10007 10009 10010 10012 10015 10017 10020 10025 10031 10036 10039 10041 10044 10049 10056 10062 10068 10076 10082 10088 10093 10096 10098 10106 10114 10121 10128 10132 10137 10145 10153 10160 10165 10170 10177 10184 10190 10198 10206 10212 10219 10228 10237 10243
10195 10183 10172 10160 10149 10138 10128 10118 10109 10100 10093 10085 10077 10070 10063 10056 10050 10045 10040 10035 10031 10027 10024 10020 10016 10012 10009 10006 10003 10001 9999 9997 9995 9994 9994 9995 9995 9996 9997 9998 9999 9999 10000 10000 10002 10005 10007 10010 10014 10019 10024 10027 10029 10031 10035 10041 10047 10054 10062 10068 10073 10078 10081 10084 10091 10098 10104 10110 10114 10120 10128 10136 10142 10147 10153 10160 10166 10173 10181 10187 10193 10201 10208 10216 10223
10197 10185 10174 10163 10151 10138 10126 10117 10109 10100 10092 10083 10075 10068 10061 10053 10047 10040 10035 10030 10026 10022 10018 10014 10011 10007 10004 10000 9997 9994 9992 9990 9988 9987 9986 9986 9986 9987 9988 9989 9990 9991 9992 9992 9993 9995 9998 10001 10004 10008 10012 10016 10019 10020 10022 10027 10034 10042 10050 10056 10059 10062 10066 10070 10076 10082 10089 10093 10098 10104 10112 10118 10124 10129 10136 10143 10149 10155 10163 10169 10175 10182 10187 10194 10204
10200 10188 10175 10163 10150 10139 10128 10119 10109 10101 10092 10082 10074 10066 10059 10052 10044 10037 10031 10026 10021 10017 10013 10009 10005 10001 9998 9995 9992 9989 9986 9983 9981 9980 9979 9978 9978 9978 9979 9980 9981 9982 9983 9984 9985 9986 9988 9991 9994 9997 10001 10005 10008 10010 10011 10015 10022 10029 10037 10042 10046 10048 10050 10055 10060 10066 10073 10078 10084 10091 10097 10103 10108 10113 10119 10127 10133 10139 10145 10151 10157 10162 10167 10175 10185
10204 10191 10176 10162 10149 10139 10130 10120 10110 10101 10092 10083 10073 10065 10057 10049 10042 10036 10029 10023 10018 10013 10008 10004 10001 9997 9993 9989 9986 9983 9980 9977 9975 9974 9972 9971 9970 9970 9971 9972 9973 9974 9975 9975 9976 9978 9979 9981 9984 9987 9990 9994 9997 10000 10002 10005 10010 10016 10022 10027 10030 10032 10035 10041 10045 10050 10057 10063 10070 10077 10083 10089 10094 10098 10104 10112 10117 10121 10127 10132 10138 10144 10150 10157 10167
10206 10192 10176 10161 10149 10139 10129 10119 10109 10100 10090 10082 10073 10064 10055 10048 10041 10034 10028 10022 10016 10011 10006 10001 9997 9994 9990 9985 9982 9978 9974 9971 9970 9968 9967 9965 9964 9963 9964 9964 9965 9965 9967 9967 9968 9969 9970 9972 9974 9977 9980 9983 9987 9989 9992 9995 10000 10004 10008 10012 10016 10020 10024 10029 10033 10039 10045 10051 10057 10064 10070 10075 10080 10084 10090 10096 10100 10104 10109 10115 10120 10127 10133 10141 10150
10207 10192 10176 10162 10151 10140 10129 10119 10109 10098 10089 10081 10072 10063 10055 10047 10040 10033 10026 10020 10014 10009 10004 9999 9994 9990 9986 9983 9979 9974 9970 9967 9964 9962 9961 9960 9958 9957 9957 9957 9957 9957 9958 9959 9960 9961 9962 9963 9965 9968 9970 9973 9976 9979 9982 9985 9989 9993 9996 10000 10004 10009 10014 10019 10023 10028 10034 10039 10046 10052 10057 10061 10065 10070 10076 10080 10084 10088 10092 10098 10104 10110 10117 10124 10132
10206 10191 10177 10165 10153 10142 10130 10118 10108 10097 10087 10078 10070 10062 10054 10047 10039 10032 10026 10019 10013 10007 10002 9996 9991 9987 9982 9979 9975 9971 9967 9963 9960 9958 9956 9954 9953 9952 9951 9951 9951 9950 9951 9951 9952 9953 9954 9955 9957 9959 9962 9964 9967 9970 9973 9976 9979 9982 9986 9989 9993 9998 10002 10006 10011 10016 10021 10026 10033 10038 10042 10045 10049 10055 10060 10063 10068 10072 10077 10083 10089 10094 10101 10108 10114
10206 10191 10178 10167 10156 10143 10130 10118 10107 10097 10087 10078 10069 10061 10053 10046 10039 10032 10025 10019 10012 10006 10000 9994 9989 9984 9979 9975 9971 9967 9964 9960 9957 9954 9951 9950 9948 9947 9946 9945 9945 9944 9944 9944 9944 9945 9946 9948 9949 9951 9954 9956 9958 9961 9964 9967 9970 9973 9976 9980 9983 9987 9991 9995 9999 10002 10007 10011 10017 10021 10024 10028 10033 10038 10043 10047 10052 10058 10063 10069 10075 10080 10086 10094 10099
10205 10191 10179 10168 10157 10145 10132 10119 10107 10097 10087 10078 10068 10060 10052 10045 10038 10031 10025 10018 10012 10006 9999 9993 9987 9982 9977 9972 9968 9964 9960 9957 9954 9950 9948 9945 9944 9942 9941 9940 9939 9938 9938 9938 9938 9938 9939 9941 9942 9944 9946 9948 9950 9953 9955 9958 9962 9964 9967 9970 9974 9977 9981 9985 9989 9992 9995 9999 10003 10007 10010 10015 10021 10026 10030 10035 10040 10046 10051 10056 10062 10068 10073 10080 10086
10204 10191 10179 10168 10157 10146 10133 10121 10108 10097 10087 10077 10068 10059 10051 10044 10037 10030 10023 10018 10012 10005 9998 9991 9985 9980 9975 9970 9966 9961 9957 9954 9950 9947 9944 9942 9940 9938 9937 9935 9933 9932 9932 9932 9932 9932 9933 9934 9936 9938 9940 9942 9944 9946 9948 9950 9953 9956 9959 9962 9965 9968 9971 9975 9979 9983 9987 9990 9994 9998 10002 10006 10012 10017 10021 10025 10030 10034 10038 10043 10049 10055 10061 10067 10073
10206 10193 10181 10169 10157 10146 10134 10122 10110 10098 10087 10077 10068 10059 10051 10043 10036 10029 10022 10016 10010 10004 9998 9991 9985 9979 9973 9968 9964 9959 9955 9951 9947 9944 9941 9938 9936 9934 9933 9931 9929 9927 9927 9927 9927 9927 9927 9928 9929 9931 9933 9935 9937 9939 9941 9943 9946 9949 9952 9955 9958 9961 9964 9967 9971 9975 9979 9983 9987 9991 9994 9998 10002 10006 10009 10013 10018 10022 10026 10031 10036 10041 10047 10053 10059
10207 10195 10184 10172 10159 10146 10134 10124 10113 10102 10090 10079 10069 10060 10051 10042 10035 10027 10021 10014 10008 10002 9996 9991 9985 9978 9972 9967 9962 9958 9953 9949 9945 9942 9938 9935 9933 9930 9929 9928 9926 9924 9922 9922 9922 9922 9922 9923 9924 9925 9927 9929 9930 9932 9934 9936 9938 9941 9944 9947 9950 9953 9956 9959 9962 9966 9970 9974 9978 9982 9985 9989 9992 9995 9999 10003 10008 10013 10017 10022 10026 10031 10035 10040 10045
10208 10198 10188 10175 10162 10149 10136 10125 10115 10105 10093 10081 10070 10061 10052 10043 10035 10027 10020 10013 10007 10000 9994 9989 9983 9978 9972 9966 9961 9956 9952 9948 9944 9940 9936 9933 9930 9928 9926 9924 9922 9921 9919 9918 9918 9918 9918 9918 9918 9919 9921 9922 9924 9925 9927 9929 9931 9933 9936 9938 9941 9943 9946 9948 9951 9955 9959 9963 9967 9971 9975 9978 9981 9986 9990 9995 10000 10004 10009 10013 10016 10020 10024 10028 10033
10212 10202 10190 10178 10165 10153 10140 10128 10116 10106 10095 10084 10072 10062 10052 10044 10036 10028 10021 10014 10007 10000 9993 9987 9982 9976 9971 9965 9960 9955 9950 9946 9942 9938 9935 9931 9928 9926 9923 9921 9919 9918 9916 9914 9914 9913 9913 9913 9914 9914 9915 9916 9917 9918 9920 9922 9924 9926 9927 9929 9931 9934 9937 9940 9943 9946 9950 9954 9957 9961 9964 9967 9971 9975 9980 9984 9989 9993 9997 10001 10003 10007 10011 10015 10020
10216 10205 10193 10181 10169 10157 10144 10131 10118 10106 10095 10086 10075 10065 10054 10045 10036 10028 10021 10014 10007 9999 9992 9986 9980 9975 9969 9964 9959 9954 9949 9944 9941 9937 9933 9930 9926 9923 9921 9918 9916 9915 9913 9911 9910 9909 9909 9909 9909 9909 9910 9910 9911 9912 9913 9915 9917 9919 9920 9922 9925 9927 9930 9934 9937 9940 9943 9945 9948 9951 9954 9957 9961 9964 9968 9972 9976 9980 9984 9987 9990 9994 9998 10003 10008
10220 10208 10196 10184 10172 10161 10148 10135 10121 10108 10096 10086 10076 10067 10056 10047 10038 10029 10022 10014 10007 10000 9993 9986 9979 9973 9968 9963 9958 9953 9948 9943 9939 9935 9931 9928 9925 9921 9918 9916 9914 9912 9910 9909 9907 9906 9905 9905 9905 9905 9905 9905 9906 9906 9907 9908 9910 9912 9914 9916 9918 9921 9923 9926 9928 9931 9934 9936 9939 9942 9944 9948 9951 9954 9958 9962 9966 9969 9973 9977 9980 9984 9988 9992 9996
10222 10209 10197 10186 10175 10164 10152 10139 10125 10112 10099 10088 10077 10068 10058 10049 10039 10030 10022 10015 10007 10000 9993 9986 9979 9973 9967 9962 9957 9952 9947 9942 9938 9934 9930 9926 9923 9920 9916 9914 9911 9909 9907 9906 9904 9903 9902 9901 9901 9901 9901 9901 9901 9902 9902 9903 9904 9905 9907 9909 9911 9913 9916 9918 9920 9922 9924 9927 9929 9932 9935 9938 9941 9944 9948 9952 9955 9959 9963 9967 9970 9974 9977 9980 9983
10222 10211 10199 10188 10176 10165 10154 10142 10129 10116 10103 10091 10080 10070 10061 10051 10041 10032 10023 10015 10008 10001 9994 9987 9980 9973 9967 9961 9956 9951 9946 9941 9937 9932 9928 9925 9921 9918 9915 9912 9909 9907 9905 9903 9901 9900 9899 9898 9897 9897 9897 9897 9897 9897 9898 9898 9899 9900 9902 9903 9905 9906 9908 9911 9912 9914 9916 9918 9920 9922 9925 9928 9931 9935 9938 9941 9944 9948 9952 9956 9959 9962 9965 9967 9970
10225 10214 10203 10191 10179 10167 10154 10142 10130 10119 10106 10094 10083 10073 10063 10054 10044 10034 10025 10016 10009 10002 9995 9988 9981 9974 9967 9961 9956 9950 9946 9941 9936 9931 9927 9923 9919 9916 9913 9910 9908 9905 9903 9900 9899 9897 9896 9895 9894 9894 9893 9893 9893 9893 9893 9894 9894 9895 9897 9898 9899 9900 9902 9903 9905 9906 9907 9909 9911 9914 9916 9919 9922 9924 9927 9930 9934 9937 9941 9945 9948 9950 9952 9955 9958
10226 10216 10205 10194 10183 10171 10158 10145 10133 10121 10110 10099 10087 10076 10066 10056 10046 10037 10027 10018 10010 10002 9995 9988 9981 9975 9968 9962 9956 9950 9945 9940 9935 9931 9926 9921 9917 9914 9911 9908 9906 9903 9901 9898 9896 9894 9893 9891 9890 9890 9890 9890 9890 9889 9889 9890 9890 9891 9891 9892 9893 9894 9895 9897 9898 9899 9900 9902 9903 9906 9908 9910 9913 9915 9918 9921 9924 9927 9930 9934 9936 9938 9941 9944 9947
10226 10215 10205 10196 10185 10173 10161 10148 10136 10125 10114 10103 10091 10080 10069 10058 10049 10039 10030 10021 10011 10003 9995 9988 9982 9975 9969 9963 9956 9950 9944 9939 9934 9930 9925 9921 9916 9912 9909 9906 9904 9901 9899 9897 9894 9892 9890 9889 9888 9887 9886 9886 9886 9886 9886 9886 9886 9886 9887 9887 9888 9888 9889 9891 9892 9893 9895 9896 9897 9899 9900 9903 9905 9907 9910 9913 9915 9918 9920 9922 9925 9927 9930 9933 9934
10227 10216 10205 10195 10184 10173 10162 10151 10139 10128 10117 10106 10095 10084 10072 10061 10051 10042 10033 10023 10014 10004 9996 9989 9982 9976 9969 9963 9957 9950 9944 9939 9934 9929 9924 9920 9916 9912 9908 9905 9902 9899 9897 9894 9892 9890 9888 9886 9885 9884 9883 9882 9882 9882 9882 9882 9882 9883 9883 9883 9883 9884 9884 9885 9886 9887 9889 9890 9891 9892 9893 9895 9897 9900 9903 9905 9907 9909 9910 9912 9914 9917 9920 9922 9923
10229 10218 10207 10195 10184 10172 10161 10151 10141 10130 10119 10109 10098 10087 10076 10064 10053 10043 10034 10025 10016 10007 9997 9989 9982 9976 9969 9962 9956 9951 9945 9939 9934 9929 9924 9919 9915 9911 9907 9903 9900 9897 9895 9892 9890 9888 9886 9884 9883 9881 9880 9879 9878 9877 9877 9877 9878 9878 9879 9879 9879 9879 9880 9880 9881 9882 9882 9883 9884 9885 9886 9888 9890 9892 9895 9897 9899 9900 9901 9903 9905 9908 9910 9910 9911
10228 10219 10209 10198 10186 10173 10162 10151 10141 10130 10120 10110 10099 10089 10078 10067 10055 10044 10035 10025 10017 10008 9999 9990 9982 9975 9969 9962 9955 9950 9945 9939 9934 9929 9924 9919 9915 9910 9906 9902 9899 9895 9893 9890 9888 9885 9883 9881 9879 9878 9877 9876 9875 9874 9873 9873 9872 9873 9873 9874 9874 9875 9875 9876 9876 9877 9877 9878 9879 9879 9880 9881 9883 9885 9887 9888 9890 9891 9892 9894 9897 9899 9899 9899 9901
10228 10218 10209 10198 10187 10176 10165 10154 10142 10132 10122 10111 10100 10090 10079 10069 10058 10046 10036 10026 10017 10009 10000 9992 9984 9976 9969 9963 9955 9949 9943 9938 9933 9928 9923 9919 9914 9910 9906 9901 9898 9894 9891 9888 9885 9883 9881 9878 9876 9875 9873 9872 9871 9870 9869 9869 9868 9868 9868 9868 9868 9869 9869 9870 9871 9872 9872 9873 9874 9874 9875 9876 9877 9878 9880 9881 9882 9882 9883 9885 9888 9889 9888 9890 9893
10228 10218 10208 10198 10187 10176 10166 10155 10145 10134 10123 10113 10103 10092 10081 10070 10060 10049 10037 10027 10017 10009 10001 9993 9985 9977 9970 9964 9957 9950 9942 9937 9932 9928 9923 9918 9913 9909 9905 9900 9897 9893 9889 9886 9883 9881 9878 9876 9874 9872 9870 9868 9867 9866 9865 9865 9864 9864 9863 9863 9863 9863 9864 9864 9865 9865 9866 9867 9868 9868 9869 9869 9870 9871 9873 9873 9874 9874 9875 9876 9878 9879 9880 9883 9887
10227 10217 10207 10197 10187 10176 10165 10155 10145 10135 10125 10114 10104 10094 10083 10072 10061 10050 10040 10029 10019 10009 10001 9994 9986 9979 9971 9964 9958 9952 9945 9937 9931 9926 9922 9917 9913 9908 9904 9899 9895 9891 9888 9884 9881 9879 9876 9874 9871 9869 9867 9865 9863 9862 9861 9860 9859 9859 9859 9858 9858 9858 9858 9859 9859 9859 9860 9861 9861 9862 9862 9863 9864 9864 9865 9866 9866 9867 9867 9868 9869 9872 9873 9876 9879
10226 10216 10206 10196 10186 10176 10165 10154 10144 10134 10125 10115 10105 10095 10085 10074 10062 10052 10042 10031 10021 10011 10002 9994 9987 9980 9972 9965 9958 9951 9946 9939 9933 9926 9921 9916 9911 9907 9903 9899 9894 9890 9886 9883 9879 9877 9874 9872 9869 9867 9865 9863 9861 9859 9857 9856 9855 9854 9853 9853 9853 9853 9853 9853 9853 9853 9854 9854 9855 9855 9856 9856 9857 9857 9858 9859 9859 9860 9860 9860 9862 9865 9867 9869 9871
10224 10215 10204 10194 10184 10174 10164 10154 10144 10134 10124 10114 10105 10095 10086 10075 10064 10053 10043 10033 10023 10013 10003 9994 9986 9979 9973 9966 9958 9951 9944 9939 9933 9927 9921 9916 9911 9906 9901 9897 9893 9889 9885 9881 9877 9875 9872 9870 9867 9865 9863 9860 9858 9856 9854 9853 9851 9850 9849 9848 9847 9847 9847 9847 9847 9847 9847 9848 9848 9849 9849 9850 9850 9850 9851 9852 9852 9852 9852 9853 9855 9857 9860 9861 9863
10222 10213 10203 10193 10182 10172 10162 10152 10143 10133 10123 10113 10103 10094 10084 10075 10065 10056 10045 10034 10024 10015 10005 9996 9987 9979 9972 9965 9958 9951 9944 9937 9931 9926 9921 9915 9911 9906 9901 9895 9891 9887 9884 9880 9875 9872 9869 9867 9865 9862 9860 9858 9855 9853 9851 9850 9848 9847 9846 9844 9843 9843 9842 9842 9841 9841 9841 9841 9841 9842 9842 9843 9843 9844 9844 9845 9845 9846 9846 9846 9847 9849 9851 9853 9854
10220 10210 10201 10190 10180 10170 10160 10150 10140 10131 10122 10113 10103 10093 10082 10073 10065 10057 10047 10036 10025 10015 10006 9997 9988 9979 9971 9964 9957 9950 9943 9936 9930 9924 9919 9914 9909 9905 9901 9896 9890 9885 9882 9879 9874 9870 9866 9863 9861 9859 9857 9855 9853 9851 9848 9846 9845 9844 9843 9841 9840 9839 9838 9837 9836 9836 9835 9835 9835 9835 9835 9836 9836 9837 9837 9838 9838 9839 9839 9839 9840 9841 9843 9844 9845
10218 10208 10199 10189 10179 10168 10159 10149 10139 10129 10120 10111 10102 10092 10082 10072 10063 10055 10046 10036 10026 10016 10006 9997 9989 9980 9971 9963 9956 9949 9943 9936 9928 9922 9916 9912 9908 9903 9899 9895 9891 9885 9881 9877 9874 9870 9866 9862 9859 9856 9854 9852 9850 9848 9846 9843 9841 9840 9839 9838 9837 9835 9834 9833 9832 9831 9831 9830 9830 9830 9830 9830 9830 9830 9830 9831 9832 9832 9833 9833 9833 9834 9835 9836 9838
10216 10206 10197 10187 10177 10167 10158 10148 10139 10129 10119 10109 10099 10090 10081 10072 10063 10053 10044 10035 10026 10017 10008 9999 9990 9981 9973 9964 9957 9950 9943 9936 9929 9922 9914 9908 9904 9901 9897 9893 9889 9885 9880 9876 9873 9870 9866 9862 9858 9854 9851 9849 9847 9845 9843 9840 9838 9836 9835 9834 9832 9831 9830 9829 9828 9827 9826 9826 9825 9824 9824 9824 9824 9824 9824 9825 9825 9826 9826 9827 9827 9827 9828 9829 9831
10213 10204 10195 10185 10176 10166 10157 10147 10138 10128 10118 10108 10098 10089 10080 10070 10061 10051 10042 10033 10025 10017 10009 10000 9991 9982 9974 9965 9958 9950 9943 9937 9931 9924 9916 9908 9901 9896 9893 9889 9886 9883 9878 9873 9869 9866 9863 9860 9857 9853 9849 9846 9844 9842 9839 9837 9835 9833 9831 9830 9828 9827 9826 9825 9824 9823 9822 9821 9820 9820 9819 9819 9819 9819 9819 9819 9819 9820 9820 9821 9821 9821 9822 9822 9824
10211 10201 10192 10183 10174 10165 10155 10146 10137 10128 10118 10107 10097 10087 10078 10069 10059 10050 10040 10032 10024 10016 10008 10000 9991 9983 9974 9966 9957 9950 9943 9936 9930 9924 9918 9911 9903 9895 9889 9885 9882 9879 9876 9871 9866 9863 9859 9856 9853 9851 9847 9844 9841 9838 9836 9834 9832 9830 9828 9826 9824 9823 9821 9820 9819 9819 9818 9817 9816 9816 9815 9814 9814 9814 9814 9814 9814 9814 9814 9815 9815 9816 9816 9816 9817